Terug naar catalogus

YAOGAN-30 J

ActiefMilitairVLEO
NORAD 43083·PAYLOAD·🇨🇳 China

Gelanceerd Dec 25, 2017 vanaf Xichang Satellite Launch Center

Loading…

Volgende Passages (komende 24 uur)

TLE

VersSource: Space-Track

Epoch: Sep 14, 2026, 14:44 UTC

1 43083U 17085C   26257.61443013  .00001994  00000-0  14720-3 0  9993
2 43083  34.9963 325.3410 0004967 204.7641 155.2830 15.03027616476217

Volg YAOGAN-30 J in realtime met AllMySat

Download on the App Store